Date,TemperatureHighF,TemperatureAvgF,TemperatureLowF,DewpointHighF,DewpointAvgF,DewpointLowF,HumidityHigh,HumidityAvg,HumidityLow,PressureMaxIn,PressureMinIn,WindSpeedMaxMPH,WindSpeedAvgMPH,GustSpeedMaxMPH,PrecipitationSumIn
2013-1-1,78,72,66,61,59,56,76,63,53,30.29,30.14,18,3,21,0.00
2013-1-2,82,70,60,67,62,58,91,76,47,30.18,30.07,13,2,13,0.00
2013-1-3,80,73,66,68,65,63,90,78,60,30.22,30.11,12,2,14,0.00
2013-1-4,80,71,66,70,67,63,93,85,66,30.32,30.19,11,2,11,0.00
2013-1-5,75,70,66,70,67,64,93,89,78,30.34,30.25,9,1,10,0.30
2013-1-6,82,73,65,72,68,63,95,83,62,30.29,30.15,17,3,18,0.00
2013-1-7,77,72,68,70,68,65,93,88,74,30.25,30.16,14,2,16,0.10
2013-1-8,80,76,70,73,70,67,91,82,70,30.29,30.17,15,5,17,0.00
2013-1-9,81,77,73,72,70,68,89,78,68,30.38,30.26,19,7,19,0.00
2013-1-10,79,76,75,70,66,60,82,70,54,30.39,30.28,23,7,23,0.00
2013-1-11,78,75,74,70,67,64,85,75,67,30.36,30.24,22,6,22,0.00
2013-1-12,80,76,73,67,65,62,76,69,56,30.28,30.18,15,6,16,0.00
2013-1-13,80,75,73,67,64,-2,79,68,57,30.22,30.16,18,6,20,0.00
2013-1-14,80,75,71,67,64,61,77,67,55,30.27,30.21,15,4,16,0.00
2013-1-15,80,75,71,67,65,62,82,72,60,30.23,30.14,17,5,17,0.10
2013-1-16,71,68,65,62,62,61,87,82,73,30.15,30.14,1,0,1,0.00
2013-1-23,74,68,61,59,55,50,79,63,43,30.39,30.31,13,3,14,0.00
2013-1-24,74,66,60,55,51,41,82,61,39,30.38,30.29,13,2,16,0.00
2013-1-25,75,66,58,58,55,51,81,68,52,30.38,30.27,11,1,11,0.00
2013-1-26,76,68,60,59,56,50,85,67,46,30.36,30.25,15,2,15,0.00
2013-1-27,78,69,61,63,58,54,86,69,47,30.39,30.29,16,3,16,0.00
2013-1-28,79,74,72,68,63,59,80,68,56,30.41,30.32,17,7,17,0.00
2013-1-29,78,74,72,70,66,64,88,77,66,30.33,30.22,16,5,18,0.20
2013-1-30,80,74,72,68,64,61,86,70,59,30.22,30.06,22,5,22,0.00
2013-1-31,72,66,58,69,57,39,92,75,47,30.28,30.04,20,3,20,0.00